Wind_Speed
15 15 15 15 14 16 20 22 23 26 22 19 19 18 19 24 26 26 27 30 29 29 34 36 36 35 35 33 33 34 34 34 35 36 38 38 38 38 36 34 34 34 34 34 32 32 34 32 29
19 18 19 20 18 19 23 24 23 26 24 20 21 20 19 23 26 28 29 30 29 32 37 36 35 35 35 35 37 36 35 36 35 32 31 32 33 35 35 34 34 34 35 34 34 33 33 33 31
22 21 24 24 23 24 27 29 27 28 27 25 24 22 21 22 22 26 29 34 37 34 37 38 38 35 35 38 37 40 40 35 31 30 28 28 30 31 33 34 34 33 33 35 36 35 34 33 33
25 26 26 25 24 25 26 29 29 31 33 30 30 28 23 23 24 26 27 33 33 35 37 38 38 37 37 38 39 40 39 36 31 30 30 30 28 31 31 33 33 32 33 34 35 36 35 34 34
27 28 30 27 26 28 27 30 36 34 34 35 31 29 28 27 28 31 31 32 34 35 34 36 39 40 39 39 41 37 35 33 34 33 30 28 26 25 28 30 32 32 33 33 33 35 35 35 34
28 28 29 25 25 26 28 31 36 35 37 36 32 30 27 31 33 35 37 39 39 34 33 35 40 41 41 41 37 35 35 35 35 37 36 36 35 32 31 31 31 32 31 31 33 34 35 36 37
31 34 31 31 30 30 29 34 33 36 38 37 34 35 34 35 37 40 42 43 42 34 35 36 39 40 42 40 36 36 37 37 38 40 40 40 40 39 38 37 36 35 34 32 32 33 34 36 37
40 41 39 36 33 31 29 29 32 37 38 38 36 39 36 36 39 43 42 40 35 31 34 35 38 41 41 40 37 37 38 37 39 41 42 41 40 38 38 36 36 37 37 36 34 33 34 35 36
46 50 44 36 34 33 33 33 37 39 37 33 36 40 43 45 47 46 43 38 34 33 32 34 39 40 40 38 40 39 37 37 39 40 39 37 38 36 35 35 35 35 36 35 35 35 33 31 30
51 51 42 36 31 34 37 40 42 40 39 23 34 35 43 51 54 52 43 37 36 35 34 33 38 39 40 41 41 39 39 38 36 38 37 34 33 34 33 34 34 35 34 34 34 33 34 35 34
52 52 43 37 32 40 40 40 42 39 34 27 39 41 48 54 49 45 36 33 39 36 33 33 34 39 40 42 38 38 36 36 37 34 31 31 31 32 33 33 35 33 32 32 34 35 36 38 38
53 52 52 44 36 45 39 40 39 39 29 33 41 48 50 45 40 37 29 36 38 36 32 29 33 35 42 40 37 33 35 35 33 32 29 31 31 32 31 30 27 29 31 31 30 31 32 35 36
54 55 55 53 48 42 43 40 35 37 25 39 43 47 45 39 35 32 29 35 39 38 28 31 33 36 36 36 33 32 34 35 34 31 30 30 31 33 31 28 28 27 25 26 29 31 33 32 32
47 52 52 57 54 44 43 39 41 34 31 39 45 43 41 37 33 29 30 35 39 34 31 30 26 27 29 30 32 33 34 36 35 32 31 29 32 31 30 28 28 26 27 26 28 30 31 30 28
51 55 56 55 51 47 44 38 42 33 35 42 45 43 42 38 32 28 31 33 36 33 26 20 18 24 27 31 33 33 34 37 33 32 30 31 32 30 30 29 28 29 29 29 30 28 27 27 28
57 61 61 54 50 48 47 39 41 31 37 39 43 42 38 32 29 31 30 31 32 30 25 21 18 23 30 33 34 33 35 33 31 30 31 32 29 30 29 28 29 28 30 28 27 27 27 29 29
62 61 59 57 51 51 48 44 40 32 36 39 39 37 30 27 28 29 30 32 28 27 24 24 19 23 29 36 33 34 34 31 31 29 32 30 29 27 25 26 26 26 27 30 31 31 30 30 30
58 55 55 55 56 53 54 50 48 36 41 37 35 30 26 26 27 31 30 28 24 24 23 22 21 26 31 36 34 35 32 31 29 30 32 31 30 27 29 30 31 32 33 34 33 31 27 27 28
58 59 58 57 55 56 54 54 52 35 38 34 34 30 28 23 26 27 25 24 22 23 23 20 22 25 29 37 35 33 31 30 30 31 32 31 30 30 33 34 30 32 32 31 29 24 24 24 22
48 51 53 49 49 51 51 49 47 38 37 34 28 26 25 26 27 26 24 21 23 23 19 22 24 27 31 34 32 31 29 29 31 32 31 31 31 34 34 30 27 26 23 21 22 22 19 18 15
43 42 39 40 40 45 46 50 49 40 38 33 26 26 20 24 25 24 22 20 21 21 19 22 24 27 31 31 30 28 28 29 31 29 30 32 33 33 29 27 24 19 17 17 16 14 14 14 16
40 29 24 30 30 39 43 53 45 37 37 29 23 22 21 25 19 21 19 22 22 17 19 21 23 26 27 28 26 26 28 29 26 28 30 31 32 27 25 22 17 13 11 6 2 7 6 10 16
31 25 22 25 31 38 41 48 34 28 24 23 23 23 24 19 23 20 21 21 14 15 16 19 21 23 24 24 23 25 28 28 27 29 27 28 26 23 18 13 6 5 0 6 9 11 13 17 19
38 32 31 31 35 42 36 39 34 16 20 20 21 26 18 21 18 16 20 18 13 16 17 19 18 20 20 22 22 25 28 25 26 25 29 25 23 16 9 4 1 5 11 16 16 14 16 18 21
45 41 38 38 42 35 32 39 9 15 9 18 23 18 21 17 15 14 18 13 13 16 15 17 18 18 19 21 22 26 24 22 22 25 23 20 14 7 3 1 7 10 13 16 14 12 15 20 22
48 39 40 32 32 32 28 35 19 17 12 14 16 17 21 18 14 14 12 10 12 12 13 15 17 17 17 17 22 21 18 19 21 20 18 16 7 4 4 7 10 11 13 14 14 15 17 19 20
42 42 35 32 33 24 30 23 14 18 14 18 11 18 20 18 14 12 7 9 10 8 13 12 14 15 14 17 20 16 17 18 18 17 15 7 7 9 9 11 12 14 15 17 16 14 17 16 15
43 38 36 37 36 32 31 25 13 17 19 16 16 21 22 17 11 7 5 8 8 10 10 9 13 13 12 17 16 15 16 17 16 18 8 6 9 10 13 12 12 16 20 20 17 18 16 8 14
50 48 46 41 34 33 25 22 10 19 19 14 22 24 20 12 10 6 4 7 7 10 6 9 12 12 12 15 16 15 16 17 14 10 4 8 9 10 12 11 13 18 20 19 17 17 14 16 16
45 43 39 37 34 31 21 16 15 22 24 19 22 23 18 11 4 4 2 6 5 5 5 9 11 10 13 15 14 14 15 12 10 9 5 9 8 11 12 11 16 19 16 17 16 17 14 14 11
Wind_Direction
253 263 269 284 294 305 310 316 321 327 321 314 310 309 310 308 306 300 298 296 296 297 297 295 292 295 296 299 302 301 299 297 295 291 285 283 279 275 271 268 264 261 260 259 251 243 244 246 242
244 254 259 275 286 297 298 302 314 317 315 307 307 312 308 297 294 295 289 287 290 292 297 297 297 297 302 304 304 303 297 296 293 290 286 283 283 271 267 263 261 260 259 255 256 250 241 246 248
236 246 253 258 263 272 282 289 297 313 308 304 309 304 296 295 295 293 290 282 291 296 300 300 298 301 305 307 305 306 301 296 295 291 289 290 279 275 271 269 265 264 264 264 258 255 251 247 249
241 247 249 252 264 273 276 286 296 302 302 303 305 305 300 289 298 307 302 291 293 297 297 297 299 303 305 307 308 306 302 300 300 298 287 281 288 283 275 272 270 271 270 268 264 261 255 251 251
245 247 252 253 265 270 278 283 288 296 299 305 304 302 313 304 296 295 296 307 302 299 292 297 299 305 306 308 307 305 301 296 300 297 296 299 292 289 280 277 276 273 271 270 264 260 257 254 256
242 244 247 251 257 267 277 285 294 295 298 301 297 301 312 305 299 299 299 304 310 301 297 301 300 304 308 308 306 303 299 298 299 303 303 303 305 302 299 290 283 280 282 278 270 263 261 259 257
244 248 249 250 255 265 274 283 288 292 296 300 298 307 311 305 302 302 300 301 307 299 301 301 299 306 308 307 304 303 298 297 301 304 304 303 302 302 301 298 294 290 285 279 275 270 267 265 261
244 244 244 248 256 260 267 275 283 283 289 293 294 300 305 302 297 301 300 299 304 298 300 298 297 305 305 302 302 300 301 304 305 307 305 302 301 298 294 289 285 284 282 277 273 269 264 262 259
239 244 247 248 258 259 257 265 276 280 276 288 292 296 298 299 298 302 296 301 299 294 291 292 294 298 299 299 303 305 310 309 309 306 304 303 299 295 291 289 286 282 278 274 269 265 260 250 250
246 251 251 258 256 254 255 264 268 278 275 296 294 295 296 295 295 297 292 298 290 284 286 291 290 292 297 300 304 307 310 309 307 307 304 299 296 296 294 290 288 284 279 272 266 260 257 252 255
253 257 252 249 255 254 259 261 259 274 280 300 291 288 288 288 284 284 285 285 283 278 285 286 285 291 295 295 304 307 310 308 309 307 303 300 299 299 297 295 293 286 283 280 269 262 256 258 262
250 254 257 257 251 253 263 263 260 274 287 289 288 287 289 288 275 273 279 278 277 273 281 277 282 288 291 300 305 307 307 309 314 309 304 303 302 302 297 298 296 290 279 276 273 267 262 262 262
249 253 257 258 255 257 262 267 268 265 288 287 287 288 288 283 270 271 275 276 276 279 279 276 284 286 294 297 308 310 308 309 314 310 309 303 306 303 300 295 288 292 283 274 269 266 267 266 266
255 257 255 254 251 255 264 268 266 272 281 277 282 285 283 277 274 273 270 272 276 276 274 281 288 295 301 308 312 310 305 308 310 311 310 305 310 305 305 302 292 290 283 279 284 279 274 271 265
254 256 259 254 256 256 264 263 266 281 280 279 281 281 282 279 284 281 278 276 277 275 279 282 298 313 323 315 310 308 306 309 307 312 314 314 311 303 303 300 293 289 286 280 286 277 275 267 260
255 255 254 257 256 256 263 261 264 276 273 279 284 282 280 281 274 278 275 274 276 279 280 289 306 319 319 320 313 308 309 308 312 317 318 316 313 309 307 300 298 291 284 286 283 281 278 268 261
252 252 256 258 259 260 265 269 272 273 270 276 281 284 282 270 273 276 278 279 279 286 292 297 303 315 319 318 310 307 307 310 316 318 319 317 314 317 314 307 303 294 283 284 285 281 274 264 262
256 255 258 260 263 264 270 271 272 267 268 270 278 278 273 272 285 278 283 274 278 285 292 294 306 312 314 314 307 306 308 312 315 319 320 316 314 313 310 304 299 295 285 285 286 281 267 262 256
257 260 263 266 270 269 268 268 269 265 259 262 264 266 265 278 279 274 262 274 278 285 285 296 304 307 312 309 304 304 309 313 316 318 319 311 311 311 309 307 299 297 290 283 281 272 267 259 252
256 258 260 262 264 266 263 262 262 257 250 252 257 252 255 276 273 264 265 279 286 287 290 299 302 306 305 301 303 305 312 316 317 318 312 309 309 308 308 305 304 298 290 286 279 271 258 238 223
251 256 263 265 262 262 263 257 257 249 246 243 245 244 262 275 265 264 273 279 283 284 288 287 292 297 299 298 302 309 314 319 318 314 312 311 309 310 311 309 303 298 293 287 275 254 236 220 217
241 262 260 252 251 250 258 259 249 254 240 240 241 246 269 259 255 263 271 282 283 292 285 286 292 298 297 299 304 311 315 321 317 315 313 314 316 314 311 309 304 301 302 296 180 168 182 174 180
243 251 245 243 246 250 250 258 255 244 229 236 237 245 253 252 246 259 272 281 287 298 303 298 294 294 297 302 310 313 320 318 313 314 316 317 320 316 315 311 311 319 106 118 120 123 136 142 153
237 234 241 243 248 247 245 248 247 214 227 232 230 241 241 233 246 257 276 275 298 301 293 295 296 299 303 310 310 318 321 317 313 318 318 322 323 323 326 313 42 106 116 117 118 126 138 144 146
222 224 232 240 246 252 243 243 149 200 207 222 239 235 227 242 263 265 276 292 288 287 298 296 300 306 314 315 319 323 322 319 324 327 329 332 335 340 333 108 128 115 129 130 126 128 133 139 144
227 228 240 250 258 260 235 233 194 237 236 245 237 229 232 239 253 269 292 303 293 305 309 302 305 315 322 329 331 331 332 330 339 338 343 339 352 20 74 119 127 125 134 124 121 124 139 146 150
221 223 231 241 244 242 231 220 175 220 249 251 238 228 236 254 251 267 301 317 310 321 315 304 314 324 335 336 339 341 336 341 343 345 344 2 54 64 96 116 118 127 132 124 121 135 142 134 137
217 223 225 231 238 225 224 201 194 220 233 237 216 218 231 243 243 263 308 310 319 315 305 315 327 342 343 344 344 347 346 349 350 347 354 62 68 86 100 110 120 135 126 125 128 127 137 151 120
214 214 216 222 230 223 215 194 204 203 213 218 218 226 236 220 240 268 288 311 308 312 306 332 342 355 348 348 345 347 345 353 4 5 38 74 71 91 96 116 130 131 130 136 135 138 133 109 102
215 221 227 233 235 231 223 205 203 201 206 207 217 236 229 218 231 306 251 316 305 320 324 348 356 353 346 344 345 352 350 358 12 12 44 75 75 83 97 109 135 130 123 139 135 141 135 119 99
Height
5896 5896 5897 5898 5901 5899 5898 5898 5896 5896 5896 5895 5894 5893 5893 5891 5888 5887 5885 5882 5880 5877 5874 5871 5867 5865 5863 5861 5859 5857 5855 5853 5851 5848 5846 5844 5843 5843 5843 5842 5842 5843 5845 5846 5847 5848 5849 5849 5851
5893 5894 5894 5895 5897 5896 5895 5894 5893 5893 5892 5892 5890 5891 5891 5889 5885 5884 5881 5878 5876 5873 5869 5864 5862 5860 5858 5856 5853 5851 5849 5847 5845 5842 5839 5838 5836 5834 5834 5835 5836 5836 5837 5837 5838 5841 5843 5843 5844
5889 5890 5892 5893 5893 5893 5893 5890 5891 5890 5889 5888 5889 5889 5888 5885 5883 5881 5879 5875 5872 5869 5864 5860 5856 5856 5854 5851 5848 5845 5841 5839 5838 5837 5834 5832 5830 5829 5828 5829 5829 5830 5830 5829 5829 5831 5833 5835 5838
5886 5887 5888 5889 5890 5890 5890 5887 5886 5887 5885 5884 5883 5884 5885 5882 5879 5877 5875 5871 5869 5866 5861 5856 5852 5851 5849 5846 5842 5839 5836 5833 5831 5829 5827 5826 5824 5823 5823 5823 5823 5823 5823 5824 5823 5823 5825 5828 5831
5881 5883 5883 5886 5888 5887 5886 5883 5881 5882 5883 5880 5879 5878 5878 5877 5874 5871 5869 5865 5863 5861 5856 5851 5848 5845 5843 5841 5837 5834 5832 5828 5825 5823 5820 5818 5816 5816 5815 5815 5816 5817 5816 5817 5817 5818 5818 5821 5823
5875 5876 5878 5881 5884 5883 5881 5878 5877 5876 5876 5875 5874 5873 5874 5870 5866 5864 5862 5859 5857 5855 5851 5846 5842 5839 5837 5836 5833 5829 5825 5822 5819 5816 5813 5811 5808 5807 5807 5806 5807 5808 5808 5809 5810 5810 5809 5811 5814
5869 5869 5871 5875 5879 5879 5879 5875 5872 5871 5869 5868 5867 5866 5867 5862 5859 5857 5856 5854 5852 5849 5845 5840 5836 5834 5831 5829 5827 5823 5820 5817 5814 5810 5807 5804 5802 5800 5799 5797 5797 5798 5799 5800 5801 5800 5801 5803 5804
5863 5862 5865 5869 5873 5874 5874 5871 5867 5866 5865 5863 5862 5859 5860 5856 5853 5852 5849 5847 5846 5842 5839 5835 5830 5828 5826 5822 5820 5817 5814 5810 5808 5804 5800 5796 5794 5792 5790 5789 5788 5789 5789 5790 5790 5789 5792 5793 5795
5853 5852 5859 5865 5866 5869 5867 5864 5861 5860 5860 5861 5858 5856 5851 5848 5845 5846 5844 5842 5840 5837 5833 5830 5826 5824 5821 5817 5814 5811 5808 5804 5801 5796 5792 5788 5787 5785 5782 5780 5779 5778 5779 5779 5779 5780 5782 5784 5787
5844 5844 5851 5860 5858 5858 5857 5857 5855 5853 5854 5860 5853 5852 5846 5841 5838 5838 5837 5836 5833 5830 5828 5825 5821 5818 5815 5811 5809 5806 5802 5798 5793 5789 5785 5782 5780 5777 5773 5771 5769 5769 5769 5769 5770 5771 5772 5775 5777
5837 5835 5847 5850 5851 5846 5848 5848 5847 5847 5849 5853 5847 5846 5842 5834 5832 5831 5831 5830 5827 5824 5822 5820 5816 5813 5809 5806 5804 5800 5795 5791 5787 5782 5778 5776 5772 5769 5765 5762 5760 5759 5758 5758 5759 5761 5763 5765 5767
5826 5829 5834 5842 5841 5835 5839 5839 5842 5839 5846 5844 5839 5833 5828 5826 5823 5823 5825 5822 5820 5819 5815 5813 5810 5807 5805 5802 5799 5794 5789 5784 5781 5777 5773 5769 5765 5762 5759 5756 5753 5751 5750 5750 5750 5751 5753 5755 5756
5813 5818 5824 5828 5830 5827 5830 5832 5833 5833 5841 5833 5829 5825 5821 5818 5817 5817 5817 5816 5815 5812 5809 5806 5804 5803 5800 5796 5792 5787 5783 5778 5775 5771 5766 5763 5759 5755 5751 5749 5747 5744 5743 5743 5742 5742 5743 5744 5745
5806 5804 5809 5812 5815 5822 5820 5825 5818 5830 5831 5824 5821 5818 5815 5813 5813 5812 5811 5810 5809 5806 5803 5800 5799 5797 5794 5790 5785 5781 5777 5772 5769 5764 5761 5757 5752 5748 5744 5740 5738 5736 5735 5734 5734 5733 5733 5734 5735
5793 5793 5795 5799 5808 5811 5814 5814 5812 5822 5820 5814 5813 5810 5809 5809 5808 5807 5805 5805 5803 5801 5798 5795 5793 5792 5788 5784 5779 5775 5770 5766 5762 5758 5754 5749 5745 5741 5737 5733 5730 5729 5726 5726 5725 5725 5724 5725 5726
5782 5783 5783 5792 5798 5802 5805 5803 5808 5815 5809 5807 5805 5802 5804 5805 5803 5802 5800 5799 5798 5796 5792 5789 5787 5785 5783 5779 5773 5768 5764 5760 5756 5751 5747 5742 5738 5734 5729 5726 5723 5721 5719 5718 5717 5716 5716 5717 5718
5768 5771 5777 5784 5790 5793 5796 5793 5801 5806 5800 5798 5798 5798 5798 5797 5798 5796 5796 5794 5794 5791 5787 5784 5781 5779 5777 5773 5768 5763 5759 5754 5749 5745 5740 5736 5732 5728 5723 5720 5717 5714 5712 5710 5709 5708 5708 5708 5710
5760 5765 5768 5772 5781 5787 5786 5783 5787 5795 5791 5790 5791 5792 5792 5792 5794 5791 5791 5790 5788 5785 5783 5780 5776 5774 5771 5767 5762 5757 5753 5748 5743 5739 5734 5730 5727 5722 5717 5714 5710 5707 5704 5702 5700 5699 5700 5701 5701
5757 5758 5761 5766 5772 5777 5777 5774 5774 5784 5783 5783 5783 5786 5787 5788 5788 5786 5785 5784 5782 5779 5778 5774 5771 5768 5765 5761 5757 5752 5748 5742 5736 5732 5728 5725 5720 5716 5711 5707 5703 5699 5695 5693 5692 5692 5692 5692 5692
5747 5748 5750 5759 5761 5760 5762 5762 5764 5772 5774 5774 5777 5780 5782 5783 5781 5781 5780 5778 5776 5775 5772 5769 5766 5763 5759 5756 5751 5747 5742 5736 5731 5726 5723 5719 5714 5710 5705 5699 5695 5692 5688 5686 5685 5685 5686 5687 5689
5737 5740 5746 5746 5750 5747 5748 5748 5752 5762 5765 5768 5771 5774 5777 5776 5776 5777 5776 5773 5771 5770 5766 5764 5760 5757 5754 5750 5746 5741 5736 5730 5726 5722 5718 5713 5708 5703 5698 5694 5690 5687 5684 5682 5680 5680 5682 5684 5686
5727 5737 5737 5736 5737 5739 5739 5731 5744 5755 5757 5762 5765 5768 5771 5770 5772 5772 5771 5769 5767 5763 5761 5759 5755 5751 5749 5745 5741 5736 5731 5726 5722 5718 5712 5707 5701 5697 5693 5690 5687 5684 5682 5680 5678 5679 5681 5682 5685
5725 5727 5728 5728 5727 5728 5730 5726 5743 5749 5755 5759 5760 5763 5764 5765 5765 5767 5767 5764 5761 5758 5755 5752 5749 5747 5743 5740 5736 5731 5726 5722 5718 5712 5708 5702 5696 5692 5689 5686 5684 5683 5681 5680 5680 5681 5682 5683 5685
5715 5718 5718 5719 5719 5716 5725 5725 5734 5747 5748 5751 5754 5757 5760 5760 5762 5763 5761 5758 5755 5753 5750 5748 5745 5742 5739 5735 5731 5727 5722 5718 5713 5708 5703 5697 5693 5689 5687 5685 5684 5684 5683 5682 5683 5684 5686 5687 5688
5702 5706 5709 5711 5709 5714 5722 5720 5737 5741 5745 5746 5749 5753 5755 5757 5759 5758 5756 5752 5751 5749 5746 5744 5741 5738 5735 5731 5727 5723 5718 5714 5709 5704 5698 5694 5691 5688 5686 5685 5685 5686 5686 5686 5686 5688 5690 5691 5693
5695 5702 5705 5708 5709 5712 5716 5715 5734 5736 5740 5743 5746 5750 5751 5753 5755 5754 5751 5748 5746 5744 5742 5740 5737 5735 5731 5727 5724 5720 5716 5712 5707 5702 5696 5693 5691 5689 5687 5686 5688 5688 5689 5690 5690 5693 5694 5697 5698
5689 5691 5703 5703 5704 5712 5710 5722 5730 5731 5736 5738 5744 5745 5747 5750 5751 5749 5747 5744 5742 5741 5739 5737 5735 5732 5728 5725 5722 5718 5714 5710 5706 5701 5697 5695 5692 5690 5689 5689 5691 5692 5692 5693 5695 5697 5699 5701 5702
5679 5690 5692 5693 5695 5704 5706 5718 5726 5729 5732 5736 5740 5741 5744 5747 5747 5744 5742 5740 5739 5739 5736 5735 5732 5729 5726 5723 5720 5717 5713 5709 5704 5701 5698 5697 5695 5693 5692 5692 5694 5695 5696 5697 5699 5702 5704 5705 5706
5666 5671 5678 5684 5690 5698 5707 5717 5722 5725 5727 5733 5736 5738 5742 5743 5743 5740 5738 5738 5737 5736 5734 5732 5730 5727 5725 5722 5719 5716 5713 5709 5705 5702 5700 5698 5697 5696 5695 5696 5698 5699 5700 5702 5704 5706 5708 5709 5710
5663 5671 5679 5682 5688 5695 5707 5713 5716 5719 5724 5731 5734 5737 5740 5740 5738 5737 5736 5735 5735 5733 5732 5730 5728 5726 5724 5721 5718 5716 5712 5709 5706 5704 5702 5701 5700 5699 5699 5700 5702 5703 5704 5706 5708 5710 5712 5713 5714